Location: Grand Lay
(47.3253°N, 0.9468°E)
Time: 19:35:51
(UTC+00:00)

Gbstr 26 Del rocket - Pass Details

Date: 13 April 2026
Orbit: 490 x 1216 km, 51.8° (Epoch: 13 May)

Event Time Altitude Azimuth Distance (km) Brightness Sun altitude
Exits shadow 03:26:45 18° 297° (WNW) 1,280 4.4 -17.0°
Maximum altitude 03:29:11 41° 1° (N) 726 3.7 -16.7°
Drops below altitude 10° 03:32:47 10° 73° (ENE) 1,707 6.5 -16.2°
Sets 03:35:06 0° 81° (E) 2,635 7.6 -15.8°
